Details From KPRC - Prescott Ernest A. Love Field
To KSEZ - Sedona
Flight Number -
Tags Routegen Generated
Created
Modified
Stats Distance 34 nm / 62 km
Max Altitude 100 ft / 30 m
Waypoints 5
Social Downloads 6
Likes 0
Share

Download

Looking for another format? Having issues loading an existing format? Contact us
Advertisement - Login to hide

Notes

Departing runway 4 KPRC. Arriving runway 4 KSEZ.

Route

KPRC +34.72_-112.35 +34.75_-112.11 +34.79_-111.86 KSEZ

ID Type Via Altitude (ft/m) Position (lat/lon) Dist (leg/tot) Name
O KPRC APT - 0 / 0 34.66134 / -112.41220 - / 0 nm
+34.72_-112.35 LATLON - 100 / 30 34.71582 / -112.35427 4 / 4 nm
+34.75_-112.11 LATLON - 100 / 30 34.75445 / -112.10594 12 / 16 nm
+34.79_-111.86 LATLON - 100 / 30 34.79308 / -111.85761 12 / 29 nm
O KSEZ APT - 0 / 0 34.84369 / -111.79461 4 / 33 nm

Altitude Profile

Advertisement - Login to hide

KPRC

Details ICAO KPRC (PRC)
Name Prescott Regional - Ernest A Love Field
Region United States
Timezone America/Phoenix (UTC-7.0)
Stats Elevation 5,045 ft / 1,538 m (AMSL)
Location 34.654700° -112.419000°
Runways 3
Magnetic Variation 10.317° E

METAR

KPRC 140053Z 19015G24KT 10SM CLR 18/M04 A2983 RMK AO2 PK WND 19028/0023 SLP044 T01781044

Decode

TAF

KPRC 132336Z 1400/1424 20018G29KT P6SM SKC FM140100 20016KT P6SM SKC FM141900 19020G30KT P6SM SKC

Decode

Departure Runways

ID Width Length Bearing (true/mag) Surface Threshold Overrun Markings Lighting
03L 60 ft / 18 m 4,847 ft / 1,478 m 41.13° / 30.82° ASPHALT 810 ft / 247 m 0 ft / 0 m VISUAL EDGE THRESHOLD
03R 150 ft / 46 m 7,626 ft / 2,324 m 41.15° / 30.83° ASPHALT 384 ft / 117 m 404 ft / 123 m APP EDGE THRESHOLD REIL-UNI
12 75 ft / 23 m 4,409 ft / 1,344 m 136.67° / 126.35° ASPHALT 151 ft / 46 m 0 ft / 0 m APP EDGE THRESHOLD REIL-OMNI
21L 150 ft / 46 m 7,626 ft / 2,324 m 221.16° / 210.84° ASPHALT 0 ft / 0 m 0 ft / 0 m PREC-APP EDGE THRESHOLD MALSR
21R 60 ft / 18 m 4,847 ft / 1,478 m 221.14° / 210.82° ASPHALT 0 ft / 0 m 0 ft / 0 m VISUAL EDGE THRESHOLD
30 75 ft / 23 m 4,409 ft / 1,344 m 316.68° / 306.36° ASPHALT 0 ft / 0 m 0 ft / 0 m APP EDGE THRESHOLD REIL-OMNI

KSEZ

Details ICAO KSEZ (SDX)
Name Sedona Airport
Region United States
Timezone America/Phoenix (UTC-7.0)
Stats Elevation 4,830 ft / 1,472 m (AMSL)
Location 34.848600° -111.788000°
Runways 1
Magnetic Variation 10.146° E

METAR

KSEZ 140135Z AUTO 17015G21KT 10SM CLR 18/M02 A2982 RMK AO2

Decode

TAF

TAF KSEZ 132336Z 1400/1424 21017G29KT P6SM SKC FM140600 18012KT P6SM FEW250 FM141800 18017G30KT P6SM SKC

Decode

Destination Runways

ID Width Length Bearing (true/mag) Surface Threshold Overrun Markings Lighting
03 100 ft / 30 m 5,137 ft / 1,566 m 45.64° / 35.49° ASPHALT 0 ft / 0 m 118 ft / 36 m APP EDGE THRESHOLD REIL-OMNI
21 100 ft / 30 m 5,137 ft / 1,566 m 225.64° / 215.50° ASPHALT 0 ft / 0 m 131 ft / 40 m APP EDGE THRESHOLD REIL-OMNI

Popular Alternatives